Hourly Data Report for October 25, 2015

All times are specified in Local Standard Time (LST). Add 1 hour to adjust for Daylight Saving Time where and when it is observed.

KUGAARUK CLIMATE
NUNAVUT

68°32'15.060" N
89°47'47.020" W
15.80 m
2303094
71407
NBB

Download Data

Hourly Data (October 2015)
Hourly Data Report for October 25, 2015
Temp Definition
°C
Dew Point Temp Definition
°C
Rel Hum Definition
%
Wind Dir Definition
10's deg

Wind Spd Definition
km/h
Visibility Definition
km
Stn Press Definition
kPa
Hmdx Definition


Wind Chill Definition


Weather Definition


TIME
00:00 -16.7 -20.2 74 31 33   99.69   -29 LegendNANA
01:00 -17.3 -20.5 76 31 36   99.70   -30 LegendNANA
02:00 -17.4 -21.3 72 31 35   99.71   -30 LegendNANA
03:00 -17.6 -21.3 73 31 32   99.73   -30 LegendNANA
04:00 -18.1 -21.7 73 30 25   99.76   -29 LegendNANA
05:00 -17.7 -21.5 72 30 28   99.73   -29 LegendNANA
06:00 -17.8 -21.2 74 30 32   99.72   -30 LegendNANA
07:00 -17.7 -21.3 73 30 26   99.70   -29 LegendNANA
08:00 -17.5 -20.8 75 29 26   99.68   -29 LegendNANA
09:00 -18.2 -21.6 75 28 32   99.67   -31 LegendNANA
10:00 -17.9 -21.6 73 30 32   99.61   -30 LegendNANA
11:00 -17.6 -21.5 72 32 25   99.58   -29 LegendNANA
12:00 -16.4 -20.3 72 31 27   99.53   -27 LegendNANA
13:00 -16.3 -20.3 71 30 24   99.49   -27 LegendNANA
14:00 -16.0 -19.8 73 31 30   99.49   -27 LegendNANA
15:00 -15.6 -18.9 76 31 32   99.48   -27 LegendNANA
16:00 -15.7 -18.9 76 31 31   99.49   -27 LegendNANA
17:00 -15.4 -18.5 77 31 34   99.47   -27 LegendNANA
18:00 -15.1 -18.4 76 31 31   99.45   -26 LegendNANA
19:00 -15.0 -18.0 78 32 36   99.44   -27 LegendNANA
20:00 -15.6 -18.6 78 32 32   99.46   -27 LegendNANA
21:00 -15.4 -18.8 75 31 26   99.47   -26 LegendNANA
22:00 -15.8 -19.2 75 29 24   99.47   -26 LegendNANA
23:00 -15.4 -18.5 77 30 22   99.51   -25 LegendNANA

Notes on Data Quality.

Legend

  • E = Estimated
  • M = Missing
  • NA = Not Available
  • ‡ = Partner data that is not subject to review by the National Climate Archives
Date modified: